• In Belarus
  • List of Countries
  • For 7 days
  • Water Temperature
  • Satellite Maps
  • Weather Map
  • Weather Widgets
  • user-avatar
    Login

    Hourly Weather Gobabis

    Today, 19 January, Saturday

    Time Temperature Precipitation Wind Pressure Humidity
    00:00 +28°C° 0 mm 5 mps 640 mmHg 16%
    01:00 +27°C° 0 mm 4 mps 640 mmHg 17%
    02:00 +26°C° 0 mm 5 mps 640 mmHg 17%
    03:00 +24°C° 0 mm 6 mps 641 mmHg 17%
    04:00 +23°C° 0 mm 8 mps 641 mmHg 17%
    05:00 +23°C° 0 mm 8 mps 641 mmHg 20%
    06:00 +23°C° 0 mm 8 mps 641 mmHg 22%
    07:00 +22°C° 0 mm 9 mps 642 mmHg 25%
    08:00 +26°C° 0 mm 8 mps 642 mmHg 23%
    09:00 +28°C° 0 mm 8 mps 643 mmHg 21%
    10:00 +30°C° 0 mm 7 mps 643 mmHg 19%
    11:00 +32°C° 0 mm 7 mps 643 mmHg 18%
    12:00 +33°C° 0 mm 6 mps 643 mmHg 18%
    13:00 +35°C° 0 mm 5 mps 643 mmHg 17%
    14:00 +35°C° 0 mm 4 mps 642 mmHg 16%
    15:00 +36°C° 0 mm 4 mps 642 mmHg 15%
    16:00 +36°C° 0 mm 4 mps 642 mmHg 15%
    17:00 +35°C° 0 mm 4 mps 641 mmHg 15%
    18:00 +34°C° 0 mm 4 mps 641 mmHg 16%
    19:00 +33°C° 0 mm 5 mps 641 mmHg 16%
    20:00 +32°C° 0 mm 6 mps 641 mmHg 15%
    21:00 +30°C° 0 mm 7 mps 641 mmHg 14%
    22:00 +29°C° 0 mm 8 mps 642 mmHg 12%
    23:00 +28°C° 0 mm 8 mps 641 mmHg 11%

    Tomorrow, 20 January, Sunday

    Time Temperature Precipitation Wind Pressure Humidity
    00:00 +27°C° 0 mm 7 mps 641 mmHg 11%
    01:00 +26°C° 0 mm 7 mps 641 mmHg 10%
    02:00 +24°C° 0 mm 7 mps 641 mmHg 10%
    03:00 +24°C° 0 mm 6 mps 641 mmHg 10%
    04:00 +23°C° 0 mm 5 mps 641 mmHg 10%
    05:00 +24°C° 0 mm 6 mps 642 mmHg 9%
    06:00 +24°C° 0 mm 6 mps 642 mmHg 8%
    07:00 +26°C° 0 mm 7 mps 643 mmHg 7%
    08:00 +28°C° 0 mm 6 mps 643 mmHg 7%
    09:00 +32°C° 0 mm 5 mps 644 mmHg 7%
    10:00 +34°C° 0 mm 5 mps 644 mmHg 7%
    11:00 +35°C° 0 mm 4 mps 644 mmHg 8%
    12:00 +36°C° 0 mm 3 mps 643 mmHg 8%
    13:00 +37°C° 0 mm 2 mps 643 mmHg 9%
    14:00 +37°C° 0 mm 3 mps 643 mmHg 8%
    15:00 +38°C° 0 mm 4 mps 642 mmHg 8%
    16:00 +38°C° 0 mm 4 mps 642 mmHg 7%
    17:00 +37°C° 0 mm 4 mps 642 mmHg 7%
    18:00 +35°C° 0 mm 4 mps 642 mmHg 8%
    19:00 +34°C° 0 mm 5 mps 642 mmHg 8%
    20:00 +33°C° 0 mm 5 mps 642 mmHg 7%
    21:00 +32°C° 0 mm 5 mps 642 mmHg 6%
    22:00 +29°C° 0 mm 5 mps 642 mmHg 6%
    23:00 +29°C° 0 mm 5 mps 642 mmHg 6%

    Day after tomorrow, 21 January, Monday

    Time Temperature Precipitation Wind Pressure Humidity
    00:00 +28°C° 0 mm 5 mps 642 mmHg 5%
    01:00 +27°C° 0 mm 5 mps 641 mmHg 5%
    02:00 +26°C° 0 mm 5 mps 641 mmHg 9%
    03:00 +26°C° 0 mm 6 mps 641 mmHg 13%
    04:00 +24°C° 0 mm 6 mps 641 mmHg 18%
    05:00 +26°C° 0 mm 7 mps 641 mmHg 28%
    06:00 +26°C° 0 mm 8 mps 642 mmHg 38%
    07:00 +27°C° 0 mm 9 mps 643 mmHg 48%
    08:00 +29°C° 0 mm 9 mps 643 mmHg 43%
    09:00 +32°C° 0 mm 8 mps 644 mmHg 38%
    10:00 +34°C° 0 mm 8 mps 644 mmHg 33%
    11:00 +35°C° 0 mm 6 mps 644 mmHg 28%
    12:00 +36°C° 0 mm 4 mps 644 mmHg 24%
    13:00 +36°C° 0 mm 2 mps 643 mmHg 19%
    14:00 +36°C° 0 mm 2 mps 643 mmHg 19%
    15:00 +36°C° 0 mm 2 mps 642 mmHg 20%
    16:00 +35°C° 0 mm 2 mps 642 mmHg 20%
    17:00 +34°C° 0 mm 3 mps 642 mmHg 23%
    18:00 +34°C° 0 mm 4 mps 642 mmHg 25%
    19:00 +33°C° 0 mm 5 mps 642 mmHg 28%
    20:00 +32°C° 0 mm 5 mps 642 mmHg 32%
    21:00 +30°C° 0 mm 6 mps 642 mmHg 36%
    22:00 +29°C° 0 mm 6 mps 642 mmHg 41%
    23:00 +28°C° 0 mm 6 mps 642 mmHg 44%

    22 January, Tuesday

    Time Temperature Precipitation Wind Pressure Humidity
    00:00 +27°C° 0 mm 6 mps 642 mmHg 47%
    01:00 +27°C° 0 mm 6 mps 641 mmHg 51%
    02:00 +26°C° 0 mm 5 mps 641 mmHg 53%
    03:00 +25°C° 0 mm 4 mps 641 mmHg 55%
    04:00 +25°C° 0 mm 3 mps 641 mmHg 57%
    05:00 +26°C° 0.1 mm 4 mps 642 mmHg 53%
    06:00 +27°C° 0.1 mm 5 mps 642 mmHg 49%
    07:00 +27°C° 0.1 mm 5 mps 643 mmHg 46%
    08:00 +29°C° 0 mm 5 mps 643 mmHg 40%
    09:00 +32°C° 0 mm 5 mps 644 mmHg 34%
    10:00 +33°C° 0 mm 5 mps 644 mmHg 28%
    11:00 +34°C° 0 mm 4 mps 643 mmHg 26%
    12:00 +34°C° 0 mm 3 mps 643 mmHg 24%
    13:00 +35°C° 0 mm 2 mps 642 mmHg 22%
    14:00 +35°C° 0 mm 2 mps 642 mmHg 21%
    15:00 +35°C° 0 mm 2 mps 641 mmHg 21%
    16:00 +34°C° 0 mm 1 mps 641 mmHg 21%
    17:00 +33°C° 0 mm 1 mps 641 mmHg 21%
    18:00 +32°C° 0 mm 1 mps 641 mmHg 22%
    19:00 +31°C° 0 mm 1 mps 640 mmHg 23%
    20:00 +31°C° 0 mm 1 mps 641 mmHg 24%
    21:00 +30°C° 0 mm 2 mps 641 mmHg 24%
    22:00 +30°C° 0 mm 2 mps 641 mmHg 25%
    23:00 +30°C° 0 mm 2 mps 641 mmHg 24%

    23 January, Wednesday

    Time Temperature Precipitation Wind Pressure Humidity
    00:00 +30°C° 0 mm 2 mps 641 mmHg 24%
    01:00 +30°C° 0 mm 2 mps 641 mmHg 23%
    02:00 +29°C° 0 mm 2 mps 640 mmHg 26%
    03:00 +28°C° 0 mm 2 mps 640 mmHg 28%
    04:00 +27°C° 0 mm 2 mps 640 mmHg 31%
    05:00 +27°C° 0 mm 3 mps 640 mmHg 30%
    06:00 +28°C° 0 mm 4 mps 641 mmHg 29%
    07:00 +29°C° 0 mm 5 mps 641 mmHg 28%
    08:00 +32°C° 0 mm 4 mps 642 mmHg 24%
    09:00 +34°C° 0 mm 3 mps 642 mmHg 21%
    10:00 +36°C° 0 mm 2 mps 642 mmHg 17%
    11:00 +36°C° 0 mm 2 mps 642 mmHg 16%
    12:00 +36°C° 0 mm 2 mps 641 mmHg 16%
    13:00 +37°C° 0 mm 2 mps 641 mmHg 15%
    14:00 +36°C° 0 mm 2 mps 640 mmHg 16%
    15:00 +36°C° 0 mm 2 mps 640 mmHg 17%
    16:00 +35°C° 0 mm 2 mps 639 mmHg 18%
    17:00 +34°C° 0 mm 3 mps 639 mmHg 20%
    18:00 +33°C° 0 mm 4 mps 639 mmHg 22%
    19:00 +32°C° 0 mm 5 mps 639 mmHg 24%
    20:00 +30°C° 0 mm 5 mps 639 mmHg 26%
    21:00 +29°C° 0 mm 5 mps 639 mmHg 28%
    22:00 +28°C° 0 mm 5 mps 640 mmHg 30%
    23:00 +28°C° 0 mm 4 mps 639 mmHg 31%

    24 January, Thursday

    Time Temperature Precipitation Wind Pressure Humidity
    00:00 +27°C° 0 mm 3 mps 639 mmHg 32%
    01:00 +27°C° 0 mm 2 mps 638 mmHg 33%
    02:00 +26°C° 0 mm 2 mps 638 mmHg 34%
    03:00 +26°C° 0 mm 2 mps 639 mmHg 34%
    04:00 +26°C° 0 mm 3 mps 639 mmHg 35%
    05:00 +27°C° 0 mm 4 mps 639 mmHg 30%
    06:00 +28°C° 0 mm 5 mps 640 mmHg 26%
    07:00 +29°C° 0 mm 5 mps 641 mmHg 21%
    08:00 +32°C° 0 mm 6 mps 641 mmHg 17%
    09:00 +34°C° 0 mm 6 mps 642 mmHg 13%
    10:00 +36°C° 0 mm 6 mps 642 mmHg 8%
    11:00 +37°C° 0 mm 5 mps 642 mmHg 8%
    12:00 +39°C° 0 mm 5 mps 641 mmHg 8%
    13:00 +40°C° 0 mm 4 mps 641 mmHg 7%
    14:00 +40°C° 0 mm 4 mps 641 mmHg 7%
    15:00 +40°C° 0 mm 4 mps 640 mmHg 7%
    16:00 +40°C° 0 mm 4 mps 640 mmHg 7%
    17:00 +38°C° 0 mm 4 mps 640 mmHg 8%
    18:00 +36°C° 0 mm 4 mps 639 mmHg 9%
    19:00 +35°C° 0 mm 4 mps 639 mmHg 10%
    20:00 +34°C° 0 mm 4 mps 639 mmHg 11%
    21:00 +33°C° 0 mm 5 mps 640 mmHg 12%
    22:00 +32°C° 0 mm 5 mps 640 mmHg 13%
    23:00 +30°C° 0 mm 5 mps 639 mmHg 13%
    Show more